| time (UTC) | temp C | wind direction | speed KPH | gust KPH | rain 1hr cm | rain 24hr cm | rain mn cm | humidity % | barometer mb |
| 20260508003036 | 13 | 246 | 6.4 | 8.0 | 0.00 | 0.10 | 0.10 | 72 | 1008.2 |
| 20260508001533 | 13 | 237 | 4.8 | 9.7 | 0.00 | 0.10 | 0.10 | 72 | 1008.3 |
| 20260508000034 | 13 | 227 | 4.8 | 11.3 | 0.00 | 0.10 | 0.10 | 72 | 1008.1 |
| 20260507234530 | 13 | 147 | 8.0 | 12.9 | 0.00 | 0.10 | 0.10 | 71 | 1008.0 |
| 20260507233028 | 13 | 215 | 8.0 | 16.1 | 0.00 | 0.10 | 0.10 | 71 | 1007.7 |
| 20260507231529 | 14 | 202 | 11.3 | 16.1 | 0.00 | 0.10 | 0.10 | 70 | 1007.3 |
| 20260507230029 | 15 | 234 | 9.7 | 20.9 | 0.00 | 0.10 | 0.10 | 69 | 1007.3 |
| 20260507224528 | 15 | 189 | 4.8 | 16.1 | 0.00 | 0.10 | 0.10 | 70 | 1007.4 |
| 20260507223028 | 15 | 141 | 9.7 | 19.3 | 0.00 | 0.10 | 0.10 | 68 | 1007.3 |
| 20260507221530 | 15 | 173 | 9.7 | 17.7 | 0.00 | 0.10 | 0.10 | 68 | 1007.4 |
| 20260507220031 | 15 | 190 | 9.7 | 19.3 | 0.00 | 0.10 | 0.10 | 68 | 1007.2 |
| 20260507214531 | 15 | 139 | 6.4 | 16.1 | 0.00 | 0.10 | 0.10 | 68 | 1007.2 |
| 20260507213033 | 14 | 188 | 6.4 | 14.5 | 0.00 | 0.10 | 0.10 | 68 | 1007.2 |
| 20260507211528 | 14 | 150 | 9.7 | 20.9 | 0.00 | 0.10 | 0.10 | 67 | 1007.4 |
| 20260507210031 | 14 | 170 | 8.0 | 17.7 | 0.00 | 0.10 | 0.10 | 67 | 1007.3 |
| 20260507204529 | 13 | 209 | 8.0 | 19.3 | 0.00 | 0.10 | 0.10 | 67 | 1007.3 |
| 20260507203030 | 14 | 162 | 11.3 | 20.9 | 0.00 | 0.10 | 0.10 | 63 | 1007.4 |
| 20260507201531 | 13 | 103 | 9.7 | 20.9 | 0.00 | 0.10 | 0.10 | 66 | 1007.5 |
| 20260507200037 | 13 | 146 | 9.7 | 14.5 | 0.00 | 0.10 | 0.10 | 65 | 1007.4 |
| 20260507194533 | 13 | 165 | 6.4 | 16.1 | 0.00 | 0.10 | 0.10 | 64 | 1007.6 |
| 20260507193033 | 13 | 212 | 8.0 | 14.5 | 0.00 | 0.10 | 0.10 | 66 | 1007.9 |
| 20260507191531 | 13 | 162 | 11.3 | 16.1 | 0.03 | 0.10 | 0.10 | 65 | 1007.6 |
| 20260507190037 | 13 | 141 | 11.3 | 19.3 | 0.03 | 0.10 | 0.10 | 69 | 1007.9 |
| 20260507184538 | 13 | 142 | 3.2 | 11.3 | 0.03 | 0.10 | 0.10 | 66 | 1008.1 |
| 20260507183030 | 13 | 101 | 1.6 | 9.7 | 0.03 | 0.10 | 0.10 | 60 | 1008.6 |
| 20260507181532 | 13 | 54 | 1.6 | 16.1 | 0.00 | 0.08 | 0.08 | 58 | 1008.9 |
| 20260507180034 | 13 | 76 | 4.8 | 14.5 | 0.00 | 0.08 | 0.08 | 54 | 1008.5 |
| 20260507174538 | 13 | 98 | 8.0 | 17.7 | 0.00 | 0.08 | 0.08 | 53 | 1009.0 |
| 20260507173035 | 13 | 75 | 6.4 | 16.1 | 0.00 | 0.08 | 0.08 | 56 | 1008.8 |
| 20260507171533 | 13 | 43 | 6.4 | 9.7 | 0.00 | 0.08 | 0.08 | 63 | 1009.0 |
| 20260507170034 | 13 | 348 | 6.4 | 14.5 | 0.00 | 0.08 | 0.08 | 60 | 1009.3 |
| 20260507164530 | 13 | 71 | 4.8 | 9.7 | 0.00 | 0.08 | 0.08 | 61 | 1009.3 |
| 20260507163033 | 12 | 17 | 4.8 | 11.3 | 0.00 | 0.08 | 0.08 | 62 | 1010.0 |
| 20260507161530 | 13 | 319 | 0.0 | 11.3 | 0.00 | 0.08 | 0.08 | 66 | 1009.7 |
| 20260507160037 | 13 | 24 | 6.4 | 14.5 | 0.00 | 0.08 | 0.08 | 64 | 1009.4 |
| 20260507154537 | 13 | 58 | 4.8 | 14.5 | 0.00 | 0.08 | 0.08 | 63 | 1010.0 |
| 20260507153033 | 13 | 14 | 8.0 | 19.3 | 0.00 | 0.08 | 0.08 | 62 | 1009.6 |
| 20260507151531 | 13 | 36 | 8.0 | 17.7 | 0.00 | 0.08 | 0.08 | 64 | 1009.8 |
| 20260507150032 | 13 | 316 | 6.4 | 17.7 | 0.00 | 0.08 | 0.08 | 67 | 1009.7 |
| 20260507144531 | 13 | 26 | 8.0 | 19.3 | 0.00 | 0.28 | 0.08 | 69 | 1010.1 |
| 20260507143029 | 13 | 355 | 6.4 | 17.7 | 0.00 | 0.28 | 0.08 | 70 | 1010.5 |
| 20260507141530 | 13 | 37 | 4.8 | 14.5 | 0.00 | 0.28 | 0.08 | 72 | 1010.6 |
| 20260507140052 | 13 | 28 | 6.4 | 22.5 | 0.00 | 0.28 | 0.08 | 72 | 1010.5 |
| 20260507134533 | 13 | 323 | 6.4 | 19.3 | 0.00 | 0.30 | 0.08 | 72 | 1010.3 |
| 20260507133032 | 13 | 57 | 9.7 | 19.3 | 0.00 | 0.30 | 0.08 | 71 | 1010.2 |
| 20260507131536 | 13 | 31 | 8.0 | 20.9 | 0.00 | 0.30 | 0.08 | 71 | 1010.2 |
| 20260507130031 | 13 | 11 | 8.0 | 22.5 | 0.00 | 0.30 | 0.08 | 74 | 1010.3 |
| 20260507124530 | 13 | 46 | 11.3 | 17.7 | 0.00 | 0.30 | 0.08 | 76 | 1010.4 |
| 20260507123038 | 13 | 22 | 9.7 | 22.5 | 0.00 | 0.30 | 0.08 | 76 | 1010.1 |
| 20260507121540 | 13 | 59 | 4.8 | 20.9 | 0.00 | 0.30 | 0.08 | 79 | 1009.9 |
| 20260507120032 | 12 | 80 | 9.7 | 17.7 | 0.00 | 0.30 | 0.08 | 81 | 1009.6 |
| 20260507114533 | 12 | 59 | 8.0 | 17.7 | 0.00 | 0.30 | 0.08 | 82 | 1009.8 |
| 20260507113038 | 12 | 88 | 3.2 | 17.7 | 0.00 | 0.30 | 0.08 | 83 | 1009.6 |
| 20260507111532 | 12 | 360 | 6.4 | 11.3 | 0.00 | 0.30 | 0.08 | 83 | 1009.5 |
| 20260507110038 | 12 | 346 | 6.4 | 16.1 | 0.00 | 0.30 | 0.08 | 84 | 1009.7 |
| 20260507104536 | 12 | 311 | 6.4 | 14.5 | 0.00 | 0.30 | 0.08 | 84 | 1009.4 |
| 20260507103032 | 12 | 46 | 4.8 | 9.7 | 0.00 | 0.30 | 0.08 | 84 | 1009.1 |
| 20260507101539 | 12 | 49 | 4.8 | 14.5 | 0.00 | 0.30 | 0.08 | 83 | 1009.1 |
| 20260507100037 | 12 | 55 | 6.4 | 9.7 | 0.00 | 0.30 | 0.08 | 83 | 1009.1 |
| 20260507094533 | 12 | 333 | 4.8 | 14.5 | 0.00 | 0.30 | 0.08 | 84 | 1009.1 |
| 20260507093041 | 12 | 32 | 6.4 | 12.9 | 0.00 | 0.30 | 0.08 | 85 | 1009.0 |
| 20260507091533 | 12 | 337 | 4.8 | 11.3 | 0.00 | 0.30 | 0.08 | 86 | 1009.2 |
| 20260507090034 | 12 | 346 | 6.4 | 17.7 | 0.00 | 0.30 | 0.08 | 86 | 1008.8 |
| 20260507084536 | 13 | 66 | 8.0 | 16.1 | 0.00 | 0.30 | 0.08 | 88 | 1008.7 |
| 20260507083038 | 13 | 64 | 8.0 | 14.5 | 0.00 | 0.30 | 0.08 | 89 | 1008.8 |
| 20260507081534 | 13 | 115 | 3.2 | 8.0 | 0.00 | 0.30 | 0.08 | 90 | 1009.1 |
| 20260507080047 | 13 | 355 | 6.4 | 16.1 | 0.00 | 0.30 | 0.08 | 89 | 1008.7 |
| 20260507074535 | 13 | 44 | 4.8 | 11.3 | 0.00 | 0.30 | 0.08 | 89 | 1008.3 |
| 20260507073035 | 13 | 48 | 3.2 | 12.9 | 0.00 | 0.30 | 0.08 | 89 | 1008.0 |
| 20260507071557 | 13 | 55 | 4.8 | 14.5 | 0.00 | 0.30 | 0.08 | 88 | 1008.1 |
| 20260507070040 | 13 | 332 | 6.4 | 16.1 | 0.00 | 0.30 | 0.08 | 88 | 1008.3 |
| 20260507064540 | 13 | 348 | 6.4 | 22.5 | 0.00 | 0.30 | 0.08 | 88 | 1008.0 |
| 20260507063041 | 13 | 28 | 9.7 | 30.6 | 0.03 | 0.30 | 0.08 | 89 | 1008.2 |
| 20260507061530 | 14 | 334 | 11.3 | 24.1 | 0.05 | 0.30 | 0.08 | 90 | 1008.2 |
| 20260507060028 | 14 | 21 | 8.0 | 17.7 | 0.05 | 0.30 | 0.08 | 90 | 1007.3 |
| 20260507054528 | 15 | 57 | 6.4 | 17.7 | 0.05 | 0.30 | 0.08 | 90 | 1006.6 |
| 20260507053029 | 15 | 44 | 9.7 | 29.0 | 0.05 | 0.28 | 0.05 | 89 | 1007.3 |
| 20260507051528 | 16 | 324 | 9.7 | 22.5 | 0.03 | 0.23 | 0.03 | 88 | 1008.1 |
| 20260507050029 | 16 | 355 | 8.0 | 17.7 | 0.03 | 0.23 | 0.03 | 87 | 1008.2 |
| 20260507044526 | 17 | 9 | 8.0 | 16.1 | 0.03 | 0.23 | 0.03 | 86 | 1007.7 |
| 20260507043034 | 18 | 319 | 9.7 | 24.1 | 0.00 | 0.23 | 0.00 | 86 | 1008.0 |
| 20260507041529 | 19 | 352 | 3.2 | 9.7 | 0.00 | 0.23 | 0.00 | 85 | 1007.4 |
| 20260507040027 | 19 | 288 | 1.6 | 8.0 | 0.00 | 0.23 | 0.00 | 84 | 1007.6 |
| 20260507034530 | 19 | 339 | 0.0 | 0.0 | 0.00 | 0.23 | 0.23 | 83 | 1007.2 |
| 20260507033028 | 19 | 233 | 0.0 | 0.0 | 0.00 | 0.23 | 0.23 | 83 | 1007.0 |
| 20260507031528 | 19 | 288 | 0.0 | 0.0 | 0.00 | 0.23 | 0.23 | 82 | 1007.3 |
| 20260507030032 | 20 | 335 | 0.0 | 0.0 | 0.00 | 0.23 | 0.23 | 82 | 1007.3 |
| 20260507024529 | 20 | 293 | 0.0 | 0.0 | 0.00 | 0.23 | 0.23 | 82 | 1007.2 |
| 20260507023030 | 20 | 250 | 0.0 | 0.0 | 0.00 | 0.23 | 0.23 | 81 | 1006.7 |
| 20260507021528 | 20 | 165 | 0.0 | 4.8 | 0.00 | 0.23 | 0.23 | 81 | 1006.3 |
| 20260507020033 | 20 | 248 | 0.0 | 0.0 | 0.00 | 0.23 | 0.23 | 81 | 1007.0 |
| 20260507014528 | 20 | 202 | 0.0 | 1.6 | 0.00 | 0.23 | 0.23 | 80 | 1007.0 |
| 20260507013036 | 20 | 244 | 0.0 | 6.4 | 0.00 | 0.23 | 0.23 | 80 | 1007.2 |
| 20260507011537 | 20 | 260 | 4.8 | 8.0 | 0.00 | 0.23 | 0.23 | 80 | 1007.1 |
| 20260507010030 | 20 | 194 | 4.8 | 14.5 | 0.00 | 0.23 | 0.23 | 79 | 1006.4 |
| 20260507004527 | 20 | 239 | 8.0 | 11.3 | 0.00 | 0.23 | 0.23 | 79 | 1006.4 |